Location: eljas
(40.1958°N, 6.8661°W)
Time: 08:57:08
(UTC+02:00)

Daily predictions for brighter satellites

Satellite Brightness Start Highest point End
(mag) Time Altitude Azimuth Time Altitude Azimuth Time Altitude Azimuth
Cosmos 1455 3.7 21:34:45 10° SE 21:37:27 19° E 21:40:11 10° NE
ERS-2 2.5 21:37:49 10° SSE 21:41:20 47° ENE 21:44:52 10° N
Cosmos 2251 Rocket 3.9 21:37:10 10° N 21:42:24 48° ENE 21:47:33 10° SE
Cosmos 1805 Rocket 3.6 21:39:03 10° N 21:43:21 61° E 21:47:38 10° SSE
Cosmos 1892 3.6 21:40:44 10° NNE 21:44:12 30° ENE 21:47:38 10° SE
Envisat 3.0 21:42:26 10° SSE 21:47:30 78° ENE 21:52:36 10° N
Cosmos 44 Rocket 3.7 21:46:21 10° SW 21:51:04 69° WNW 21:55:57 10° NNE
Resurs 01 Rocket 2.3 21:47:00 10° SE 21:51:05 38° ENE 21:55:12 10° N
In-Cosmos 22 Rocket 4.1 21:47:21 10° N 21:52:52 82° E 21:58:13 10° S
Cosmos 2074 Rocket 4.4 21:49:33 10° SSW 21:55:49 71° W 22:02:08 10° N
NOSS 2-1 (C) 3.2 21:55:31 10° SW 21:59:08 85° NW 22:03:03 10° NNE
YAOGAN 6 2.8 21:55:41 10° SSE 21:59:11 52° ENE 22:02:44 10° N
NOSS 2-1 (D) 3.2 21:56:30 10° SW 22:00:06 81° NW 22:04:02 10° NNE
Cosmos 1610 Rocket 4.5 21:56:19 10° S 22:02:27 87° E 22:08:39 10° N
ATLAS CENTAUR R/B 1.6 22:02:42 10° S 22:06:02 35° ESE 22:09:31 10° NE
ATLAS 2AS CENTAUR R/B 3.3 21:59:03 10° NNW 22:06:47 51° NE 22:12:52 15° ESE
SL-24 R/B - RUBIN 2 3.5 22:04:14 10° NNW 22:08:36 85° ENE 22:12:32 13° SSE
SL-16 R/B 4.0 22:12:37 12° E 22:12:37 12° E 22:13:59 10° ENE
Thor Agena Rocket 3.6 22:06:47 10° NNE 22:12:03 89° WNW 22:17:19 10° SSW
Meteor 2-21 Rocket 4.4 22:05:59 10° S 22:12:03 68° E 22:18:12 10° NNE
Cosmos 1340 3.0 22:08:38 10° SSW 22:12:24 70° W 22:16:12 10° N
Meteor 2-3 Rocket 3.8 22:09:23 10° N 22:14:54 56° ENE 22:20:21 10° SSE
SJ-11-01 4.2 22:17:13 10° SSE 22:21:47 69° ENE 22:26:27 10° N
Cosmos 1666 Rocket 3.7 22:19:22 10° N 22:23:51 77° W 22:28:17 10° S
ARGOS 4.2 22:21:08 18° ESE 22:23:53 28° ENE 22:28:22 10° N
Cosmos 1825 3.3 22:22:49 10° NNE 22:26:05 27° ENE 22:26:59 24° E
Nadezhda 3 Rocket 4.1 22:20:06 10° N 22:26:26 84° W 22:32:47 10° S
Resurs 1-3 3.6 22:23:03 10° SSE 22:27:26 83° WSW 22:31:51 10° NNW
Cosmos 1933 Rocket 4.0 22:25:43 10° N 22:29:52 40° ENE 22:31:52 25° SE
Spot 2 Rocket 3.4 22:25:48 12° SSE 22:30:30 76° ENE 22:35:37 10° N
NOSS 2-1 (E) 4.5 22:27:05 10° WSW 22:30:33 43° NW 22:34:28 10° NNE
Cosmos 1939 Rocket 3.2 22:27:23 10° S 22:31:13 63° W 22:35:06 10° NNW
Sich 1 4.0 22:32:46 10° NNW 22:36:53 47° W 22:40:58 10° SSW
Cosmos 220 Rocket 3.9 22:33:09 10° NNW 22:37:30 73° ENE 22:39:47 27° SSE
Cosmos 1151 Rocket 3.0 22:34:29 13° S 22:38:11 60° E 22:42:23 10° NNE
Cosmos 1980 3.7 22:32:39 10° S 22:38:13 61° ESE 22:43:49 10° NNE
Lacrosse 5 4.5 22:37:36 10° NNW 22:39:19 11° N 22:41:02 10° NNE
Cosmos 1869 3.9 22:40:48 33° ESE 22:41:31 36° E 22:45:14 10° NNE
NOSS 3-3 (A) 4.2 22:37:12 10° SW 22:43:11 72° NW 22:49:48 10° NNE
NOSS 3-3 (C) 4.2 22:37:18 10° SW 22:43:18 73° NW 22:49:54 10° NNE
Meteor 1-27 4.4 22:37:54 10° SSW 22:43:40 80° W 22:49:22 10° N
Meteor 2-10 Rocket 4.3 22:42:57 26° SE 22:45:23 37° E 22:50:41 10° NNE
USA 186 3.9 22:44:13 10° SW 22:45:42 16° W 22:47:13 10° NW
Cosmos 2333 Rocket 2.4 22:40:37 10° SSW 22:46:16 73° WNW 22:51:57 10° NNE
OAO 2 Rocket 4.2 22:46:09 10° W 22:50:52 36° SSW 22:52:26 29° SSE
COSMOS 2428 4.2 22:46:19 10° SW 22:51:40 40° WNW 22:57:03 10° N
USA 267 3.7 22:46:05 10° ENE 22:51:57 35° SE 22:57:48 10° S
Cosmos 1844 Rocket 4.0 22:51:04 10° NW 22:56:14 37° WSW 23:01:24 10° S
Cosmos 1633 Rocket 4.4 22:52:55 10° NNW 22:56:57 38° W 23:00:59 10° SSW
Cosmos 2228 Rocket 3.4 23:00:56 10° SSW 23:05:16 63° W 23:09:39 10° N
Cosmos 2219 Rocket 3.4 23:00:31 10° SW 23:05:52 43° WNW 23:11:16 10° N
Cosmos 2237 Rocket 2.1 23:00:18 10° SSW 23:05:55 86° WNW 23:11:35 10° NNE
Cosmos 1515 Rocket 4.0 23:02:09 10° SSW 23:06:32 61° W 23:10:59 10° N
H-2A R/B 2.2 23:05:58 42° ESE 23:07:06 51° ENE 23:11:56 10° N
Helios 1A 4.0 23:09:18 31° ENE 23:09:18 31° ENE 23:12:43 10° N
Cosmos 407 Rocket 4.0 23:04:57 10° N 23:09:47 40° ENE 23:10:28 38° E
MetOp-A 4.1 23:08:23 41° SSE 23:10:17 73° ENE 23:15:38 10° N
ERS-1 Rocket 3.2 23:10:14 45° ESE 23:11:08 51° ENE 23:15:59 10° N
Cosmos 1455 4.4 23:09:41 10° SW 23:12:55 26° WNW 23:16:11 10° NNW
Cosmos 1959 Rocket 4.4 23:09:37 12° S 23:15:20 86° W 23:21:30 10° N
Cosmos 1727 Rocket 4.0 23:09:12 10° N 23:15:20 64° E 23:17:17 43° SE
SL-8 R/B 3.7 23:11:03 10° WSW 23:15:51 83° NNW 23:18:38 25° ENE
Cosmos 2278 Rocket 2.2 23:10:10 10° NNW 23:15:52 81° WSW 23:17:58 41° SSE
Centaur D-1A AC-31 3.5 23:07:23 10° SW 23:16:02 22° S 23:16:34 22° S
Cosmos 1371 Rocket 3.9 23:11:44 15° SSW 23:16:07 82° ESE 23:21:30 10° NNE
Cosmos 1408 3.2 23:14:13 10° NNW 23:17:48 52° W 23:18:25 45° SW
Resurs 01 Rocket 4.0 23:24:30 10° SW 23:27:41 19° W 23:30:52 10° NW
Cosmos 1862 4.2 23:23:59 10° N 23:26:56 39° NE 23:26:56 39° NE
Cosmos 2218 Rocket 4.3 23:23:25 10° SSW 23:29:43 67° W 23:36:06 10° N
SL-08 RB Rocket 3.5 23:30:24 82° SSE 23:30:36 89° ENE 23:35:05 10° NNW
Genesis I 4.5 23:31:45 10° NW 23:35:28 34° WSW 23:35:34 34° WSW
Cosmos 2056 Rocket 3.6 23:35:14 33° SSW 23:37:46 82° WNW 23:43:13 10° NNE
Cosmos 2098 Rocket 3.8 23:37:48 33° SW 23:39:34 52° W 23:43:29 10° N
Cosmos 405 Rocket 4.3 23:42:41 28° NNE 23:42:41 28° NNE 23:44:40 10° NNE
Cosmos 2366 rocket 4.5 23:37:49 15° SSW 23:42:55 57° W 23:49:08 10° N
ATLAS CENTAUR R/B 3.9 23:42:27 10° W 23:45:08 19° NW 23:47:54 10° N
Landsat 7 4.5 23:50:12 45° NE 23:50:12 45° NE 23:53:55 10° N
CZ-4C R/B 4.4 23:58:00 13° NE 23:58:00 13° NE 23:58:35 10° NE
